This is the latest recevied weather packets stored in our database for station/object DM5EI-L4. If no packets are shown the sender has not sent any weather packets the latest 10 day(s).
| Time | Temp. | Humidity | Pressure | Rain* | Wind** | Luminosity | Snow |
|---|---|---|---|---|---|---|---|
| 1777731917 | 29.44° C | 95% | 1016 hPa | - | - | - | - |
| 1777731016 | 28.33° C | 97% | 1016 hPa | - | - | - | - |
| 1777730115 | 28.33° C | 97% | 1016 hPa | - | - | - | - |
| 1777729214 | 29.44° C | 96% | 1016 hPa | - | - | - | - |
| 1777728313 | 28.89° C | 97% | 1016 hPa | - | - | - | - |
| 1777727411 | 28.89° C | 98% | 1016 hPa | - | - | - | - |
| 1777726510 | 27.22° C | 98% | 1017 hPa | - | - | - | - |
| 1777725609 | 27.78° C | 98% | 1017 hPa | - | - | - | - |
| 1777724708 | 27.22° C | 99% | 1017 hPa | - | - | - | - |
| 1777723807 | 27.22° C | 98% | 1017 hPa | - | - | - | - |
| 1777722906 | 27.78° C | 99% | 1017 hPa | - | - | - | - |
| 1777722005 | 27.22° C | 98% | 1017 hPa | - | - | - | - |
| 1777721103 | 27.22° C | 98% | 1018 hPa | - | - | - | - |
| 1777720202 | 26.67° C | 97% | 1018 hPa | - | - | - | - |
| 1777719301 | 26.11° C | 97% | 1018 hPa | - | - | - | - |
| 1777718400 | 26.11° C | 96% | 1018 hPa | - | - | - | - |
| 1777717499 | 26.11° C | 97% | 1018 hPa | - | - | - | - |
| 1777716598 | 26.11° C | 96% | 1018 hPa | - | - | - | - |
| 1777715697 | 25° C | 96% | 1018 hPa | - | - | - | - |
| 1777714796 | 24.44° C | 96% | 1019 hPa | - | - | - | - |
| 1777713895 | 24.44° C | 97% | 1019 hPa | - | - | - | - |
| 1777712994 | 23.89° C | 97% | 1019 hPa | - | - | - | - |
| 1777712092 | 23.89° C | 96% | 1019 hPa | - | - | - | - |
| 1777711191 | 23.89° C | 92% | 1019 hPa | - | - | - | - |
| 1777710290 | 25° C | 89% | 1019 hPa | - | - | - | - |
* Rain since midnight (hover to see other rain measurements)
** Current wind speed in m/s (hover to see current wind gust speed)